CW3224 Weather Reports


Display with metric or nautical units.
time (UTC)temp
F
wind
direction
speed
MPH
gust
MPH
rain 1hr
in
rain 24hr
in
rain mn
in
humidity
%
barometer
mb
20260906192956 68 37 0.0 2.0 0.00 0.30 0.18 71 1013.4
20260906191956 68 8 0.0 1.0 0.00 0.30 0.18 73 1013.4
20260906191450 68 170 1.0 4.0 0.00 0.30 0.18 77 1013.6
20260906185956 68 187 0.0 4.0 0.00 0.30 0.18 77 1013.9
20260906184957 68 4 0.0 0.0 0.00 0.30 0.18 75 1013.9
20260906183955 69 357 0.0 0.0 0.00 0.30 0.18 74 1013.9
20260906183409 70 179 1.0 4.0 0.00 0.30 0.18 71 1013.9
20260906183040 69 357 0.0 0.0 0.00 0.30 0.18 71 1013.9
20260906180954 71 179 2.0 3.0 0.00 0.30 0.18 73 1013.9
20260906175954 71 70 1.0 3.0 0.00 0.31 0.18 68 1014.0
20260906174954 70 154 0.0 3.0 0.00 0.32 0.18 68 1014.0
20260906173955 69 91 2.0 5.0 0.00 0.32 0.18 73 1014.3
20260906172947 68 2 1.0 4.0 0.00 0.32 0.18 74 1014.4
20260906171947 67 17 1.0 5.0 0.00 0.32 0.18 76 1014.4
20260906170948 66 150 1.0 3.0 0.00 0.32 0.18 80 1014.7
20260906170440 65 77 0.0 0.0 0.00 0.32 0.18 83 1014.8
20260906164948 64 77 0.0 2.0 0.00 0.32 0.18 82 1014.8
20260906163946 64 77 1.0 4.0 0.00 0.32 0.18 83 1014.9
20260906162945 65 60 0.0 4.0 0.00 0.32 0.18 83 1014.9
20260906161945 65 41 0.0 3.0 0.00 0.32 0.18 82 1014.9
20260906161428 65 232 0.0 0.0 0.00 0.32 0.18 83 1014.9
20260906155946 65 232 0.0 0.0 0.00 0.32 0.18 82 1015.0
20260906154943 66 301 0.0 1.0 0.00 0.32 0.18 82 1015.0
20260906153945 66 233 0.0 2.0 0.00 0.32 0.18 81 1015.1
20260906152943 66 260 0.0 3.0 0.00 0.32 0.18 83 1015.1
20260906151944 65 359 0.0 2.0 0.00 0.32 0.18 84 1015.1
20260906150943 65 31 1.0 3.0 0.00 0.32 0.18 84 1015.4
20260906145944 64 16 0.0 3.0 0.00 0.32 0.18 87 1015.5
20260906144934 63 94 0.0 3.0 0.00 0.32 0.18 89 1015.5
20260906143934 62 161 0.0 2.0 0.00 0.32 0.18 91 1015.5
20260906142934 61 69 0.0 0.0 0.00 0.32 0.18 92 1015.5
20260906141931 61 72 0.0 0.0 0.00 0.32 0.18 93 1015.5
20260906140930 61 79 0.0 0.0 0.00 0.32 0.18 94 1015.4
20260906140846 59 40 0.0 0.0 0.00 0.32 0.18 94 1015.3
20260906135409 59 42 0.0 0.0 0.00 0.32 0.18 94 1015.3
20260906133930 59 42 0.0 0.0 0.00 0.32 0.18 94 1015.2
20260906132928 59 42 0.0 0.0 0.00 0.32 0.18 94 1015.3
20260906131928 59 301 0.0 0.0 0.00 0.32 0.18 94 1015.3
20260906130926 59 43 0.0 0.0 0.00 0.32 0.18 94 1015.4
20260906125923 60 43 0.0 0.0 0.00 0.32 0.18 94 1015.4
20260906125358 59 43 0.0 0.0 0.00 0.32 0.18 94 1015.4
20260906123925 59 43 0.0 0.0 0.00 0.32 0.18 94 1015.5
20260906122923 59 43 0.0 0.0 0.00 0.32 0.18 94 1015.2
20260906121924 59 301 0.0 0.0 0.00 0.32 0.18 94 1015.2
20260906121406 58 301 0.0 0.0 0.00 0.32 0.18 94 1015.0
20260906115923 58 45 0.0 0.0 0.01 0.32 0.18 94 1014.9
20260906115403 58 301 0.0 0.0 0.01 0.32 0.18 94 1014.9
20260906113924 58 44 0.0 0.0 0.01 0.32 0.18 94 1014.9
20260906112923 58 45 0.0 0.0 0.01 0.32 0.18 94 1014.5
20260906112409 58 301 0.0 0.0 0.01 0.32 0.18 94 1014.5
20260906110924 58 42 0.0 0.0 0.01 0.32 0.18 94 1014.4
20260906105924 58 42 0.0 0.0 0.00 0.31 0.17 94 1014.4
20260906104922 58 42 0.0 0.0 0.01 0.31 0.17 94 1014.4
20260906103911 58 42 0.0 0.0 0.01 0.31 0.17 94 1014.1
20260906102911 58 42 0.0 0.0 0.01 0.31 0.17 94 1013.9
20260906102350 58 42 0.0 0.0 0.01 0.31 0.17 94 1013.9
20260906100911 58 42 0.0 0.0 0.01 0.31 0.17 94 1013.9
20260906100358 58 42 0.0 0.0 0.02 0.31 0.17 94 1013.9
20260906094909 58 42 0.0 0.0 0.01 0.30 0.16 93 1013.9
20260906093909 58 42 0.0 0.0 0.02 0.30 0.16 94 1013.7
20260906093819 58 42 0.0 0.0 0.05 0.30 0.16 93 1013.5
20260906091907 58 42 0.0 0.0 0.08 0.30 0.16 93 1013.5
20260906090905 58 42 0.0 0.0 0.08 0.30 0.16 93 1013.6
20260906090339 59 42 0.0 0.0 0.07 0.29 0.15 93 1013.4
20260906084903 59 39 0.0 0.0 0.07 0.29 0.15 93 1013.4
20260906083903 59 39 0.0 0.0 0.06 0.28 0.14 94 1013.3
20260906082903 59 44 0.0 0.0 0.03 0.25 0.11 94 1013.3
20260906081901 59 11 0.0 2.0 0.00 0.22 0.08 94 1013.3
20260906080916 59 95 0.0 0.0 0.03 0.22 0.08 93 1012.8
20260906080902 59 20 0.0 3.0 0.01 0.22 0.08 94 1013.0
20260906080303 59 95 0.0 0.0 0.04 0.22 0.08 93 1012.8
20260906073901 59 95 0.0 0.0 0.05 0.22 0.08 93 1012.8
20260906072858 59 95 0.0 0.0 0.05 0.22 0.08 93 1012.7
20260906071859 60 95 0.0 0.0 0.06 0.22 0.08 93 1012.7
20260906070858 59 95 0.0 0.0 0.05 0.21 0.07 93 1012.8
20260906065905 60 95 0.0 0.0 0.03 0.19 0.05 93 1012.8
20260906064858 60 95 0.0 0.0 0.02 0.18 0.04 93 1012.8
20260906063859 60 95 0.0 0.0 0.01 0.17 0.03 93 1012.7
20260906062900 60 95 0.0 0.0 0.01 0.17 0.03 93 1012.7
20260906061858 60 95 0.0 0.0 0.00 0.16 0.02 93 1012.7
20260906060856 60 95 0.0 0.0 0.00 0.16 0.02 93 1012.8
20260906055857 60 95 0.0 0.0 0.00 0.16 0.02 93 1012.8
20260906054857 60 96 0.0 0.0 0.01 0.16 0.02 93 1012.8
20260906053857 60 96 0.0 0.0 0.01 0.16 0.02 93 1012.8
20260906052856 60 301 0.0 0.0 0.01 0.16 0.02 93 1012.8
20260906051858 60 301 0.0 0.0 0.01 0.16 0.02 93 1012.8
20260906050855 60 301 0.0 0.0 0.01 0.16 0.02 93 1012.8
20260906050342 60 301 0.0 0.0 0.02 0.16 0.02 93 1012.9
20260906044854 60 301 0.0 0.0 0.01 0.15 0.01 93 1012.9
20260906044331 60 301 0.0 0.0 0.01 0.15 0.01 93 1012.9
20260906043331 60 301 0.0 0.0 0.01 0.15 0.01 93 1012.9
20260906041855 61 301 0.0 0.0 0.01 0.15 0.01 93 1012.9
20260906040844 61 301 0.0 0.0 0.01 0.15 0.01 93 1012.8
20260906035844 61 301 0.0 0.0 0.00 0.14 0.14 93 1012.8
20260906034845 61 301 0.0 0.0 0.00 0.14 0.14 92 1012.8
20260906033845 61 301 0.0 0.0 0.00 0.14 0.14 92 1012.6
20260906032844 61 301 0.0 0.0 0.00 0.14 0.14 93 1012.7
20260906032318 61 301 0.0 0.0 0.00 0.14 0.14 93 1012.7
20260906030843 61 96 0.0 0.0 0.00 0.14 0.14 93 1012.7
20260906025843 61 301 0.0 0.0 0.01 0.14 0.14 92 1012.6
20260906024842 61 301 0.0 0.0 0.01 0.14 0.14 92 1012.6
20260906024323 61 301 0.0 0.0 0.01 0.14 0.14 92 1012.7
20260906022843 61 301 0.0 0.0 0.02 0.14 0.14 92 1012.4
20260906021832 61 301 0.0 0.0 0.02 0.14 0.14 92 1012.4
20260906020832 62 301 0.0 0.0 0.02 0.14 0.14 92 1012.5
20260906015833 62 301 0.0 0.0 0.01 0.13 0.13 92 1012.4
20260906014831 62 301 0.0 0.0 0.01 0.13 0.13 92 1012.4
20260906013832 62 301 0.0 0.0 0.02 0.13 0.13 92 1012.8
20260906012832 62 301 0.0 1.0 0.01 0.12 0.12 92 1012.7
20260906011823 62 301 0.0 0.0 0.02 0.12 0.12 92 1012.7
20260906010823 62 96 0.0 0.0 0.02 0.12 0.12 92 1012.5
20260906005822 62 301 0.0 0.0 0.02 0.12 0.12 92 1012.3
20260906004822 62 301 0.0 0.0 0.02 0.12 0.12 92 1012.3
20260906003821 62 301 0.0 0.0 0.01 0.11 0.11 91 1012.3
20260906002820 62 301 0.0 0.0 0.01 0.11 0.11 91 1012.2
20260906001818 62 301 0.0 0.0 0.00 0.10 0.10 91 1012.2
20260906000818 63 301 0.0 0.0 0.00 0.10 0.10 91 1012.0
20260905235818 63 301 0.0 0.0 0.00 0.10 0.10 91 1012.0
20260905234817 63 301 0.0 0.0 0.00 0.10 0.10 91 1012.0
20260905233815 63 301 0.0 0.0 0.00 0.10 0.10 91 1011.8
20260905232813 63 301 0.0 0.0 0.00 0.10 0.10 91 1011.8
20260905231814 63 96 0.0 0.0 0.00 0.10 0.10 91 1011.8
20260905231251 63 301 0.0 0.0 0.00 0.10 0.10 91 1011.7
20260905225813 63 301 0.0 0.0 0.00 0.10 0.10 91 1011.4
20260905224809 63 301 0.0 0.0 0.00 0.10 0.10 90 1011.4
20260905223809 63 301 0.0 0.0 0.00 0.10 0.10 90 1011.3
20260905222809 63 301 0.0 0.0 0.02 0.10 0.10 90 1011.3
20260905221808 63 301 0.0 0.0 0.03 0.10 0.10 90 1011.3
20260905220805 63 301 0.0 0.0 0.04 0.10 0.10 89 1011.4
20260905215804 64 301 0.0 0.0 0.06 0.10 0.10 88 1011.1
20260905214802 64 301 0.0 0.0 0.07 0.10 0.10 88 1011.1
20260905213802 64 301 0.0 3.0 0.07 0.09 0.09 87 1011.0
20260905212755 65 301 0.0 3.0 0.06 0.08 0.08 86 1010.8
20260905211756 65 301 1.0 4.0 0.05 0.07 0.07 85 1010.8
20260905210755 67 301 1.0 5.0 0.04 0.06 0.06 83 1010.5
20260905205755 68 10 0.0 5.0 0.02 0.04 0.04 82 1010.2
20260905204756 69 54 0.0 0.0 0.01 0.03 0.03 81 1010.2
20260905203755 69 54 0.0 0.0 0.00 0.02 0.02 78 1010.0
20260905202756 69 123 0.0 3.0 0.00 0.02 0.02 79 1009.7
20260905201755 69 198 0.0 4.0 0.00 0.02 0.02 80 1009.7
20260905200755 69 90 0.0 1.0 0.00 0.02 0.02 81 1009.7
20260905195755 69 86 0.0 0.0 0.00 0.02 0.02 79 1009.7
20260905194755 69 86 0.0 3.0 0.00 0.02 0.02 79 1009.7
20260905194226 69 147 0.0 3.0 0.00 0.02 0.02 79 1009.7